Location: Reutlingen
(48.4911°N, 9.2587°E)
Time: 09:59:04
(UTC+02:00)

ISS - Pass Details

Date: 14 February 2018
Orbit: 402 x 406 km, 51.6° (Epoch: 18 June)

Event Time Altitude Azimuth Distance (km) Brightness Sun altitude
Rises 18:21:07 0° 283° (WNW) 2,320 1.4 -7.0°
Reaches altitude 10° 18:23:56 10° 257° (WSW) 1,456 0.8 -7.4°
Maximum altitude 18:25:42 14° 224° (SW) 1,238 -0.5 -7.7°
Drops below altitude 10° 18:27:29 10° 190° (S) 1,451 -0.7 -8.0°
Sets 18:30:16 0° 164° (SSE) 2,307 -0.1 -8.5°
